Akron, New York, United States (14001)
Lat: 43.02N, Lon: 78.5W
Wx Zone: NYZ010
Local Info
Past Weather Observations for Today

NOTE: This archive is for the closest National Weather Service station to Akron. Information may differ from the station used for current weather conditions.

Click here for Long-term Archive

Time Weather Temperature Dewpoint Humidity Pressure Winds Precip Visibility
22:10
Mostly Cloudy
46°F / 8°C 39°F / 4°C 76% 30.18 in
(1022 mb)
N 8.1 mph
(N 13 kph)
- 10SM
21:54
Mostly Cloudy
46°F / 8°C 39°F / 4°C 76% 30.18 in
(1022 mb)
N 8.1 mph
(N 13 kph)
- 10SM
20:54
Mostly Cloudy
46°F / 8°C 41°F / 5°C 82% 30.21 in
(1023 mb)
NNW 6.9 mph
(NNW 11 kph)
- 10SM
19:54
Mostly Cloudy
46°F / 8°C 39°F / 4°C 76% 30.21 in
(1023 mb)
NNW 4.6 mph
(NNW 7 kph)
- 10SM
18:54
Mostly Cloudy
46°F / 8°C 39°F / 4°C 76% 30.21 in
(1023 mb)
WNW 3.5 mph
(WNW 6 kph)
- 10SM
17:54
Mostly Cloudy
46°F / 8°C 39°F / 4°C 76% 30.21 in
(1023 mb)
Calm - 10SM
16:54
Mostly Cloudy
46°F / 8°C 39°F / 4°C 76% 30.21 in
(1023 mb)
N 4.6 mph
(N 7 kph)
- 10SM
15:54
Mostly Cloudy
46°F / 8°C 39°F / 4°C 76% 30.21 in
(1023 mb)
N 6.9 mph
(N 11 kph)
- 10SM
14:54
Mostly Cloudy
46°F / 8°C 39°F / 4°C 76% 30.21 in
(1023 mb)
N 6.9 mph
(N 11 kph)
- 10SM
14:43
Mostly Cloudy
46°F / 8°C 39°F / 4°C 76% 30.21 in
(1023 mb)
N 8.1 mph
(N 13 kph)
- 10SM
13:54
Mostly Cloudy
46°F / 8°C 39°F / 4°C 76% 30.21 in
(1023 mb)
NNE 8.1 mph
(NNE 13 kph)
- 10SM
12:54
Overcast
46°F / 8°C 39°F / 4°C 76% 30.21 in
(1023 mb)
NE 10.4 mph
(NE 17 kph)
- 10SM
11:54
Overcast
46°F / 8°C 39°F / 4°C 76% 30.21 in
(1023 mb)
NNE 11.5 mph
(NNE 19 kph)
- 10SM
10:54
Overcast
46°F / 8°C 39°F / 4°C 76% 30.24 in
(1024 mb)
NNE 10.4 mph
(NNE 17 kph)
- 10SM
09:54
Overcast
46°F / 8°C 39°F / 4°C 76% 30.24 in
(1024 mb)
NNE 6.9 mph
(NNE 11 kph)
- 10SM
08:54
Overcast
46°F / 8°C 39°F / 4°C 76% 30.21 in
(1023 mb)
N 9.2 mph
(N 15 kph)
- 10SM
07:54
Overcast
45°F / 7°C 39°F / 4°C 81% 30.21 in
(1023 mb)
N 9.2 mph
(N 15 kph)
- 10SM
06:54
Overcast
45°F / 7°C 39°F / 4°C 81% 30.18 in
(1022 mb)
N 6.9 mph
(N 11 kph)
- 10SM
05:54
Overcast
45°F / 7°C 39°F / 4°C 81% 30.18 in
(1022 mb)
N 6.9 mph
(N 11 kph)
- 10SM
04:54
Overcast
45°F / 7°C 39°F / 4°C 81% 30.15 in
(1021 mb)
NNE 8.1 mph
(NNE 13 kph)
- 10SM
03:54
Overcast
45°F / 7°C 41°F / 5°C 87% 30.15 in
(1021 mb)
N 8.1 mph
(N 13 kph)
- 10SM
03:22
Overcast
45°F / 7°C 41°F / 5°C 87% 30.12 in
(1020 mb)
N 10.4 mph
(N 17 kph)
- 10SM
02:54
Overcast
45°F / 7°C 41°F / 5°C 87% 30.12 in
(1020 mb)
N 6.9 mph
(N 11 kph)
0.00 in
(0.00 mm)
10SM
01:54
Overcast
Drizzle
45°F / 7°C 43°F / 6°C 93% 30.12 in
(1020 mb)
N 5.8 mph
(N 9 kph)
0.00 in
(0.00 mm)
10SM
01:23
Overcast
45°F / 7°C 43°F / 6°C 93% 30.12 in
(1020 mb)
N 9.2 mph
(N 15 kph)
- 10SM
00:54
Overcast
45°F / 7°C 43°F / 6°C 93% 30.12 in
(1020 mb)
N 6.9 mph
(N 11 kph)
0.00 in
(0.00 mm)
10SM
Time Weather Temperature Dewpoint Humidity Pressure Winds Precip Visibility


Weather for websites

WeatherForYou.com, LLC is not responsible for any damages or problems caused by this service. Current weather conditions are obtained from the closest station including government and personal stations which may have varying degrees of accuracy. Weather forecasts are derived from the NOAA NDFD. Like all things, this site belongs to Jesus Christ... He just trusts me to maintain it. If you have any questions or comments email webmaster@weatherforyou.com

Copyright © 2014, WeatherForYou.com LLC. All rights reserved.